Weather History for Window Rock, AZ

Change the Weather History Date:

Monday, July 8, 2013

  Actual Average Record
Temperature  
Mean Temperature 72 °F -  
Max Temperature 84 °F 83 °F 95 °F (1951)
Min Temperature 59 °F 54 °F 46 °F (1979)
Cooling Degree Days 6    
Growing Degree Days 22 (Base 50)    
Moisture  
Dew Point 49 °F    
Average Humidity 48    
Maximum Humidity 83    
Minimum Humidity 23    
Precipitation  
Precipitation 0.00 in - - ()
Sea Level Pressure  
Sea Level Pressure 29.91 in    
Wind  
Wind Speed 3 mph (ENE)    
Max Wind Speed 13 mph    
Max Gust Speed 23 mph    
Visibility 10 miles    
Events      
Averages and records for this station are not official NWS values.
T = Trace of Precipitation, MM = Missing Value Source: NWS Daily Summary

Daily Weather History Graph

Daily Weather History Graph

Search for Another Location

Airport:

Trip Planner

Search our weather history database for the weather conditions in past years. The results will help you decide how hot, cold, wet, or windy it might be!

Date:

Astronomy

Jul. 08, 2013 Rise Set
Actual Time 6:07 AM MDT 8:34 PM MDT
Civil Twilight 5:38 AM MDT 9:04 PM MDT
Nautical Twilight 5:01 AM MDT 9:40 PM MDT
Astronomical Twilight 4:21 AM MDT 10:21 PM MDT
Moon 6:36 AM MDT (7/8) 8:43 PM MDT (7/8)
Length of Visible Light 15h 26m
Length of Day
14h 26m
New Moon, 0% of the Moon is Illuminated
Jul 8
New Moon
Jul 15
First Quarter
Jul 22
Full
Jul 29
Last Quarter
Aug 6
New

Hourly Weather History & Observations

Time (MDT) Temp. Dew Point Humidity Pressure Visibility Wind Dir Wind Speed Gust Speed Precip Events Conditions
12:53 AM 64.9 °F 57.0 °F 75% 29.88 in 10.0 mi Calm Calm - N/A   Overcast
1:53 AM 64.0 °F 55.0 °F 73% 29.87 in 10.0 mi ENE 4.6 mph - N/A   Clear
2:53 AM 61.0 °F 55.9 °F 83% 29.88 in 10.0 mi NNE 3.5 mph - N/A   Clear
3:53 AM 61.0 °F 55.9 °F 83% 29.88 in 10.0 mi ENE 3.5 mph - N/A   Clear
4:53 AM 60.1 °F 54.0 °F 80% 29.90 in 10.0 mi Calm Calm - N/A   Clear
5:53 AM 59.0 °F 53.1 °F 81% 29.90 in 10.0 mi Calm Calm - N/A   Clear
7:53 AM 63.0 °F 53.1 °F 70% 29.93 in 10.0 mi Calm Calm - N/A   Partly Cloudy
8:53 AM 70.0 °F 53.1 °F 55% 29.93 in 10.0 mi Calm Calm - N/A   Overcast
9:53 AM 75.0 °F 52.0 °F 44% 29.93 in 10.0 mi Calm Calm - N/A   Partly Cloudy
10:53 AM 75.0 °F 52.0 °F 44% 29.99 in 10.0 mi Variable 3.5 mph - N/A   Clear
11:53 AM 77.0 °F 48.9 °F 37% 29.98 in 10.0 mi Calm Calm - N/A   Clear
12:53 PM 81.0 °F 46.0 °F 29% 29.94 in 10.0 mi Calm Calm - N/A   Partly Cloudy
1:53 PM 82.9 °F 44.1 °F 25% 29.91 in 10.0 mi Variable 3.5 mph - N/A   Clear
2:53 PM 84.0 °F 44.1 °F 25% 29.90 in 10.0 mi Variable 3.5 mph - N/A   Clear
3:53 PM 82.0 °F 41.0 °F 23% 29.91 in 10.0 mi NE 12.7 mph - N/A   Partly Cloudy
4:53 PM 82.9 °F 41.0 °F 23% 29.90 in 10.0 mi NNE 11.5 mph - N/A   Scattered Clouds
5:53 PM 82.0 °F 43.0 °F 25% 29.89 in 10.0 mi North 8.1 mph - N/A   Partly Cloudy
6:53 PM 80.1 °F 45.0 °F 29% 29.88 in 10.0 mi Calm Calm - N/A   Scattered Clouds
7:53 PM 79.0 °F 43.0 °F 28% 29.89 in 10.0 mi Calm Calm - N/A   Mostly Cloudy
8:53 PM 78.1 °F 42.1 °F 28% 29.88 in 10.0 mi Calm Calm - N/A   Clear
9:53 PM 73.9 °F 46.9 °F 38% 29.93 in 10.0 mi South 11.5 mph 23.0 mph N/A   Mostly Cloudy
10:53 PM 70.0 °F 50.0 °F 49% 29.96 in 10.0 mi SSW 6.9 mph - N/A   Clear
11:53 PM 68.0 °F 51.1 °F 55% 29.97 in 10.0 mi SSE 12.7 mph 17.3 mph N/A   Clear